Location: Oshawa
(43.9000°N, 78.8670°W)
Time: 06:29:51
(UTC-04:00)

Courier 1B - All Passes

Search period start: 28 May 2017 00:00
Search period end: 07 June 2017 00:00
Orbit: 962 x 1209 km, 28.3° (Epoch: 27 May)

Date Brightness Start Highest point End Pass type
(mag) Time Alt. Az. Time Alt. Az. Time Alt. Az.
28 May - 10:59:46 10° SSE 11:00:24 10° SSE 11:01:01 10° SSE daylight
28 May - 12:48:12 10° SSW 12:53:24 20° SSE 12:58:27 10° SE daylight
28 May - 14:41:02 10° SW 14:46:32 23° S 14:51:49 10° SE daylight
28 May - 16:35:36 10° SW 16:39:30 15° SSW 16:43:18 10° SSE daylight
29 May - 11:54:56 10° SSW 11:59:48 18° SSE 12:04:33 10° SE daylight
29 May - 13:47:15 10° SW 13:52:57 23° S 13:58:25 10° SE daylight
29 May - 15:41:17 10° SW 15:46:00 18° SSW 15:50:34 10° SSE daylight
30 May - 11:01:56 10° SSW 11:06:12 16° SSE 11:10:24 10° SE daylight
30 May - 12:53:35 10° SW 12:59:20 23° S 13:04:53 10° SE daylight
30 May - 14:47:10 10° SW 14:52:28 21° S 14:57:34 10° SE daylight
30 May - 16:43:44 10° SW 16:45:19 11° SSW 16:46:53 10° SSW daylight
31 May - 10:09:25 10° S 10:12:37 13° SSE 10:15:48 10° SE daylight
31 May - 12:00:01 10° SW 12:05:42 22° S 12:11:13 10° SE daylight
31 May - 13:53:13 10° SW 13:58:53 23° S 14:04:21 10° SE daylight
31 May - 15:48:18 10° SW 15:51:51 14° SSW 15:55:20 10° S daylight
01 Jun - 11:06:38 10° SSW 11:12:03 20° SSE 11:17:23 10° ESE daylight
01 Jun - 12:59:21 10° SW 13:05:15 24° S 13:10:59 10° SE daylight
01 Jun - 14:53:44 10° SW 14:58:20 17° SSW 15:02:48 10° SSE daylight
02 Jun - 10:13:27 10° SSW 10:18:25 18° SSE 10:23:21 10° ESE daylight
02 Jun - 12:05:37 10° SW 12:11:36 24° S 12:17:27 10° SE daylight
02 Jun - 13:59:30 10° WSW 14:04:47 20° SSW 14:09:53 10° SSE daylight
03 Jun - 09:20:36 10° SSW 09:24:49 15° SSE 09:29:01 10° SE daylight
03 Jun - 11:12:00 10° SW 11:17:57 24° S 11:23:48 10° SE daylight
03 Jun - 13:05:27 10° WSW 13:11:10 22° S 13:16:43 10° SE daylight
03 Jun - 15:01:12 10° SW 15:04:08 13° SSW 15:07:01 10° S daylight
04 Jun - 08:28:21 10° S 08:31:14 12° SSE 08:34:09 10° SE daylight
04 Jun - 10:18:33 10° SW 10:24:17 22° S 10:29:59 10° ESE daylight
04 Jun - 12:11:33 10° SW 12:17:31 24° S 12:23:22 10° SE daylight
04 Jun - 14:06:19 10° SW 14:10:36 16° SSW 14:14:48 10° SSE daylight
05 Jun - 09:25:17 10° SSW 09:30:38 20° SSE 09:36:01 10° ESE daylight
05 Jun - 11:17:47 10° SW 11:23:51 25° S 11:29:52 10° SE daylight
05 Jun - 13:11:57 10° WSW 13:17:02 19° SSW 13:22:01 10° SSE daylight
06 Jun - 08:32:16 10° SSW 08:37:01 18° SSE 08:41:49 10° ESE daylight
06 Jun - 10:24:08 10° SW 10:30:11 25° S 10:36:13 10° SE daylight
06 Jun - 12:17:49 10° WSW 12:23:24 21° SSW 12:28:55 10° SSE daylight
06 Jun - 14:14:48 10° SW 14:16:21 11° SSW 14:17:55 10° SSW daylight
